Weather History for Ellington Field, TX

Change the Weather History Date:

Thursday, March 21, 2013

  Actual Average Record
Temperature  
Mean Temperature 64 °F -  
Max Temperature 73 °F 71 °F 80 °F (2005)
Min Temperature 55 °F 53 °F 42 °F (1998)
Degree Days  
Heating Degree Days 1    
Growing Degree Days 14 (Base 50)    
Moisture  
Dew Point 51 °F    
Average Humidity 62    
Maximum Humidity 73    
Minimum Humidity 46    
Precipitation  
Precipitation 0.00 in - - ()
Sea Level Pressure  
Sea Level Pressure 29.90 in    
Wind  
Wind Speed 6 mph (SSE)    
Max Wind Speed 18 mph    
Max Gust Speed 23 mph    
Visibility 10 miles    
Events      
Averages and records for this station are not official NWS values.
T = Trace of Precipitation, MM = Missing Value Source: NWS Daily Summary

Daily Weather History Graph

Daily Weather History Graph

Search for Another Location

Airport:

Trip Planner

Search our weather history database for the weather conditions in past years. The results will help you decide how hot, cold, wet, or windy it might be!

Date:

Astronomy

Mar. 21, 2013 Rise Set
Actual Time 7:22 AM CDT 7:32 PM CDT
Civil Twilight 6:59 AM CDT 7:56 PM CDT
Nautical Twilight 6:31 AM CDT 8:24 PM CDT
Astronomical Twilight 6:03 AM CDT 8:52 PM CDT
Moon 2:24 PM CDT (3/21) 3:23 AM CDT (3/21)
Length of Visible Light 12h 57m
Length of Day
12h 09m
Waxing Gibbous, 69% of the Moon is Illuminated
Mar 21
Waxing Gibbous
Mar 27
Full
Apr 2
Last Quarter
Apr 10
New
Apr 18
First Quarter

Hourly Weather History & Observations

Time (CDT) Temp. Dew Point Humidity Pressure Visibility Wind Dir Wind Speed Gust Speed Precip Events Conditions
12:50 AM 59.0 °F 46.4 °F 63% 30.05 in 10.0 mi Calm Calm - N/A   Mostly Cloudy
1:50 AM 59.0 °F 46.4 °F 63% 30.03 in 10.0 mi Calm Calm - N/A   Mostly Cloudy
2:50 AM 57.2 °F 46.4 °F 67% 30.02 in 10.0 mi Calm Calm - N/A   Mostly Cloudy
3:50 AM 57.2 °F 46.4 °F 67% 30.00 in 10.0 mi Calm Calm - N/A   Mostly Cloudy
4:50 AM 57.2 °F 46.4 °F 67% 29.99 in 10.0 mi Calm Calm - N/A   Partly Cloudy
5:50 AM 55.4 °F 44.6 °F 67% 29.97 in 10.0 mi SSE 4.6 mph - N/A   Scattered Clouds
6:50 AM 55.4 °F 44.6 °F 67% 29.98 in 10.0 mi ESE 4.6 mph - N/A   Scattered Clouds
7:50 AM 57.2 °F 48.2 °F 72% 29.97 in 10.0 mi Calm Calm - N/A   Scattered Clouds
8:50 AM 60.8 °F 51.8 °F 72% 29.98 in 10.0 mi ESE 5.8 mph - N/A   Mostly Cloudy
9:50 AM 66.2 °F 53.6 °F 64% 29.97 in 10.0 mi SSE 6.9 mph - N/A   Mostly Cloudy
10:50 AM 68.0 °F 50.0 °F 52% 29.97 in 10.0 mi SE 12.7 mph - N/A   Mostly Cloudy
11:50 AM 69.8 °F 48.2 °F 46% 29.94 in 10.0 mi SSE 18.4 mph - N/A   Mostly Cloudy
12:50 PM 71.6 °F 51.8 °F 50% 29.91 in 10.0 mi South 15.0 mph 23.0 mph N/A   Mostly Cloudy
1:50 PM 73.4 °F 53.6 °F 50% 29.88 in 10.0 mi SSE 16.1 mph - N/A   Mostly Cloudy
2:50 PM 71.6 °F 51.8 °F 50% 29.84 in 10.0 mi SSE 18.4 mph - N/A   Mostly Cloudy
3:50 PM 71.6 °F 53.6 °F 53% 29.80 in 10.0 mi SSE 15.0 mph - N/A   Overcast
4:50 PM 71.6 °F 53.6 °F 53% 29.78 in 10.0 mi SSE 15.0 mph - N/A   Overcast
5:50 PM 69.8 °F - N/A% 29.77 in 10.0 mi SSE 12.7 mph 20.7 mph N/A   Overcast
6:50 PM 68.0 °F 55.4 °F 64% 29.75 in 10.0 mi SSE 13.8 mph - N/A   Overcast
8:50 PM 68.0 °F 57.2 °F 68% 29.76 in 10.0 mi SSE 11.5 mph - N/A   Overcast
9:50 PM 68.0 °F 59.0 °F 73% 29.76 in 10.0 mi SSE 6.9 mph - N/A   Overcast
10:50 PM 68.0 °F 59.0 °F 73% 29.78 in 10.0 mi SSE 10.4 mph - N/A   Overcast
11:50 PM 68.0 °F 59.0 °F 73% 29.76 in 10.0 mi SSE 8.1 mph - N/A   Overcast